Weather History for KEAR - September, 2013

Change the Weather History Date:

Friday, September 20, 2013

  Actual Average Record
Temperature  
Mean Temperature 59 °F 62 °F  
Max Temperature 73 °F 75 °F 94 °F (1940)
Min Temperature 45 °F 48 °F 31 °F (1983)
Degree Days  
Heating Degree Days 6 5  
Month to date heating degree days 60  
Since 1 July heating degree days 77  
Cooling Degree Days 0 2  
Month to date cooling degree days 72  
Year to date cooling degree days 850  
Growing Degree Days 8 (Base 50)    
Moisture  
Dew Point 44 °F    
Average Humidity 63    
Maximum Humidity 93    
Minimum Humidity 33    
Precipitation  
Precipitation 0.00 in - 0.97 in (1996)
Sea Level Pressure  
Sea Level Pressure 30.09 in    
Wind  
Wind Speed 9 mph (NW)    
Max Wind Speed 17 mph    
Max Gust Speed 22 mph    
Visibility 10 miles    
Events      
T = Trace of Precipitation, MM = Missing Value Source: NWS Daily Summary

Daily Weather History Graph

Daily Weather History Graph

Search for Another Location

Airport or City:

Trip Planner

Search our weather history database for the weather conditions in past years. The results will help you decide how hot, cold, wet, or windy it might be!

Date:

Astronomy

Sep. 20, 2013 Rise Set
Actual Time 7:21 AM CDT 7:36 PM CDT
Civil Twilight 6:54 AM CDT 8:03 PM CDT
Nautical Twilight 6:22 AM CDT 8:35 PM CDT
Astronomical Twilight 5:49 AM CDT 9:08 PM CDT
Moon 8:09 PM CDT (9/20) 8:38 AM CDT (9/20)
Length of Visible Light 13h 08m
Length of Day
12h 14m
Full, 98% of the Moon is Illuminated
Sep 20
Full
Sep 26
Last Quarter
Oct 4
New
Oct 11
First Quarter
Oct 18
Full

Hourly Weather History & Observations

Time (CDT) Temp. Windchill Dew Point Humidity Pressure Visibility Wind Dir Wind Speed Gust Speed Precip Events Conditions
12:15 AM 51.8 °F - 46.4 °F 82% 30.11 in 10.0 mi NW 6.9 mph - N/A   Unknown
12:35 AM 50.0 °F - 46.4 °F 87% 30.12 in 10.0 mi WNW 6.9 mph - N/A   Unknown
12:55 AM 48.2 °F - 46.4 °F 93% 30.12 in 10.0 mi WNW 9.2 mph - N/A   Unknown
1:15 AM 48.2 °F - 44.6 °F 87% 30.12 in 10.0 mi WNW 8.1 mph - N/A   Unknown
1:35 AM 50.0 °F - 46.4 °F 87% 30.13 in 10.0 mi WNW 6.9 mph - N/A   Unknown
1:55 AM 48.2 °F - 44.6 °F 87% 30.13 in 10.0 mi NW 6.9 mph - N/A   Unknown
2:15 AM 50.0 °F - 44.6 °F 82% 30.13 in 10.0 mi NW 8.1 mph - N/A   Unknown
2:35 AM 50.0 °F - 44.6 °F 82% 30.13 in 10.0 mi NW 8.1 mph - N/A   Unknown
2:55 AM 48.2 °F - 44.6 °F 87% 30.13 in 10.0 mi NW 8.1 mph - N/A   Unknown
3:15 AM 48.2 °F - 44.6 °F 87% 30.13 in 10.0 mi NW 4.6 mph - N/A   Unknown
3:35 AM 48.2 °F - 44.6 °F 87% 30.12 in 10.0 mi NW 3.5 mph - N/A   Unknown
3:55 AM 48.2 °F - 42.8 °F 82% 30.12 in 10.0 mi NW 4.6 mph - N/A   Unknown
4:15 AM 46.4 °F 42.9 °F 42.8 °F 87% 30.12 in 10.0 mi NW 6.9 mph - N/A   Unknown
4:35 AM 46.4 °F 42.9 °F 42.8 °F 87% 30.12 in 10.0 mi NNW 6.9 mph - N/A   Unknown
4:55 AM 46.4 °F 42.4 °F 42.8 °F 87% 30.12 in 10.0 mi NNW 8.1 mph - N/A   Unknown
5:15 AM 46.4 °F 41.9 °F 42.8 °F 87% 30.12 in 10.0 mi NW 9.2 mph - N/A   Unknown
5:35 AM 46.4 °F 42.4 °F 42.8 °F 87% 30.12 in 10.0 mi NW 8.1 mph - N/A   Unknown
5:55 AM 46.4 °F 41.9 °F 42.8 °F 87% 30.13 in 10.0 mi NW 9.2 mph - N/A   Unknown
6:15 AM 46.4 °F 41.9 °F 41.0 °F 81% 30.14 in 10.0 mi NW 9.2 mph - N/A   Unknown
6:35 AM 44.6 °F 40.2 °F 41.0 °F 87% 30.14 in 10.0 mi NW 8.1 mph - N/A   Unknown
6:55 AM 44.6 °F 40.2 °F 41.0 °F 87% 30.15 in 10.0 mi NW 8.1 mph - N/A   Unknown
7:15 AM 44.6 °F 39.7 °F 41.0 °F 87% 30.15 in 10.0 mi NW 9.2 mph - N/A   Unknown
7:35 AM 44.6 °F 39.7 °F 41.0 °F 87% 30.15 in 10.0 mi NW 9.2 mph - N/A   Unknown
7:55 AM 44.6 °F 39.2 °F 41.0 °F 87% 30.15 in 10.0 mi NW 10.4 mph - N/A   Unknown
8:15 AM 46.4 °F 41.9 °F 41.0 °F 81% 30.16 in 10.0 mi NW 9.2 mph - N/A   Unknown
8:35 AM 48.2 °F - 42.8 °F 82% 30.15 in 10.0 mi NW 9.2 mph - N/A   Unknown
8:55 AM 50.0 °F - 42.8 °F 76% 30.15 in 10.0 mi NW 8.1 mph - N/A   Unknown
9:15 AM 51.8 °F - 44.6 °F 76% 30.16 in 10.0 mi NNW 8.1 mph - N/A   Unknown
9:35 AM 53.6 °F - 44.6 °F 72% 30.16 in 10.0 mi NNW 10.4 mph - N/A   Unknown
9:55 AM 57.2 °F - 42.8 °F 59% 30.16 in 10.0 mi NNW 11.5 mph - N/A   Unknown
10:15 AM 57.2 °F - 42.8 °F 59% 30.16 in 10.0 mi North 16.1 mph - N/A   Unknown
10:35 AM 59.0 °F - 42.8 °F 55% 30.16 in 10.0 mi North 13.8 mph 21.9 mph N/A   Unknown
10:55 AM 60.8 °F - 41.0 °F 48% 30.16 in 10.0 mi NNW 17.3 mph - N/A   Unknown
11:15 AM 62.6 °F - 44.6 °F 52% 30.15 in 10.0 mi North 12.7 mph 17.3 mph N/A   Unknown
11:35 AM 64.4 °F - 42.8 °F 45% 30.15 in 10.0 mi North 15.0 mph - N/A   Unknown
11:55 AM 64.4 °F - 42.8 °F 45% 30.14 in 10.0 mi NNW 16.1 mph - N/A   Unknown
12:15 PM 64.4 °F - 42.8 °F 45% 30.14 in 10.0 mi North 12.7 mph - N/A   Unknown
12:35 PM 66.2 °F - 42.8 °F 43% 30.13 in 10.0 mi NNW 12.7 mph - N/A   Unknown
12:55 PM 66.2 °F - 44.6 °F 46% 30.12 in 10.0 mi NW 12.7 mph 19.6 mph N/A   Unknown
1:15 PM 68.0 °F - 44.6 °F 43% 30.12 in 10.0 mi NNW 12.7 mph - N/A   Unknown
1:35 PM 69.8 °F - 44.6 °F 40% 30.11 in 10.0 mi NNW 15.0 mph 19.6 mph N/A   Unknown
1:55 PM 69.8 °F - 44.6 °F 40% 30.10 in 10.0 mi NW 13.8 mph - N/A   Unknown
2:15 PM 71.6 °F - 44.6 °F 38% 30.09 in 10.0 mi NW 11.5 mph 17.3 mph N/A   Unknown
2:35 PM 71.6 °F - 44.6 °F 38% 30.08 in 10.0 mi WNW 9.2 mph 17.3 mph N/A   Unknown
2:55 PM 71.6 °F - 44.6 °F 38% 30.07 in 10.0 mi NNW 9.2 mph 19.6 mph N/A   Unknown
3:15 PM 71.6 °F - 42.8 °F 35% 30.06 in 10.0 mi NW 9.2 mph - N/A   Unknown
3:35 PM 71.6 °F - 44.6 °F 38% 30.05 in 10.0 mi NNW 9.2 mph - N/A   Unknown
3:55 PM 73.4 °F - 44.6 °F 36% 30.05 in 10.0 mi NW 9.2 mph - N/A   Unknown
4:15 PM 71.6 °F - 42.8 °F 35% 30.04 in 10.0 mi NW 10.4 mph - N/A   Unknown
4:35 PM 73.4 °F - 44.6 °F 36% 30.04 in 10.0 mi NW 8.1 mph - N/A   Unknown
4:55 PM 73.4 °F - 42.8 °F 33% 30.03 in 10.0 mi NW 9.2 mph - N/A   Unknown
5:15 PM 73.4 °F - 42.8 °F 33% 30.03 in 10.0 mi NW 5.8 mph - N/A   Unknown
5:35 PM 73.4 °F - 44.6 °F 36% 30.02 in 10.0 mi NNW 6.9 mph - N/A   Unknown
5:55 PM 73.4 °F - 44.6 °F 36% 30.02 in 10.0 mi WNW 5.8 mph - N/A   Unknown
6:15 PM 73.4 °F - 44.6 °F 36% 30.02 in 10.0 mi North 4.6 mph - N/A   Unknown
6:35 PM 71.6 °F - 42.8 °F 35% 30.02 in 10.0 mi North 5.8 mph - N/A   Unknown
6:55 PM 69.8 °F - 46.4 °F 43% 30.02 in 10.0 mi NNE 6.9 mph - N/A   Unknown
7:15 PM 68.0 °F - 48.2 °F 49% 30.02 in 10.0 mi ENE 5.8 mph - N/A   Unknown
7:35 PM 64.4 °F - 48.2 °F 56% 30.01 in 10.0 mi ENE 5.8 mph - N/A   Unknown
7:55 PM 62.6 °F - 50.0 °F 63% 30.02 in 10.0 mi East 5.8 mph - N/A   Unknown
8:15 PM 60.8 °F - 50.0 °F 68% 30.02 in 10.0 mi SE 6.9 mph - N/A   Unknown
8:35 PM 60.8 °F - 48.2 °F 63% 30.02 in 10.0 mi SSE 6.9 mph - N/A   Unknown
8:55 PM 59.0 °F - 48.2 °F 67% 30.02 in 10.0 mi SE 6.9 mph - N/A   Unknown
9:15 PM 59.0 °F - 48.2 °F 67% 30.03 in 10.0 mi SSE 5.8 mph - N/A   Unknown
9:35 PM 59.0 °F - 48.2 °F 67% 30.03 in 10.0 mi SSE 5.8 mph - N/A   Unknown
9:55 PM 57.2 °F - 46.4 °F 67% 30.03 in 10.0 mi SE 5.8 mph - N/A   Unknown
10:15 PM 55.4 °F - 46.4 °F 72% 30.03 in 10.0 mi SSE 5.8 mph - N/A   Unknown
10:35 PM 55.4 °F - 46.4 °F 72% 30.04 in 10.0 mi South 6.9 mph - N/A   Unknown
10:55 PM 55.4 °F - 48.2 °F 77% 30.04 in 10.0 mi South 5.8 mph - N/A   Unknown
11:15 PM 55.4 °F - 46.4 °F 72% 30.04 in 10.0 mi SSE 4.6 mph - N/A   Unknown
11:35 PM 55.4 °F - 46.4 °F 72% 30.04 in 10.0 mi SSE 4.6 mph - N/A   Unknown
11:55 PM 53.6 °F - 46.4 °F 77% 30.04 in 10.0 mi SE 5.8 mph - N/A   Unknown